GFSCGP_con_lsi_018.txt.gz
Lid_Strength_Index
5 7 8 7 7 8 8 8 9 7 7 7 7 7 7 6 6 6 5 5 4 4 3 2 1 1 1 0 0 0 0 -0 -0 -0 0 0 0 -0 0 0 0 0 1 0
7 8 7 6 6 7 7 8 9 8 7 7 8 8 7 6 6 6 5 5 4 4 3 3 2 1 1 1 1 0 0 -0 -0 -0 -1 -1 -1 -0 0 0 1 1 1 1
8 7 6 6 7 8 8 9 9 9 8 7 8 9 8 7 6 5 5 4 4 4 4 3 3 2 1 1 1 0 0 -0 -1 -1 -1 -0 -0 -0 0 0 0 1 1 1
7 6 7 7 8 7 9 7 7 9 9 11 8 12 9 8 8 7 6 5 5 4 3 3 3 2 2 1 0 -0 -0 -0 0 1 0 -0 0 1 1 2 1 1 1 1
8 7 7 8 8 7 9 7 7 8 8 9 9 11 10 8 9 8 6 6 5 4 3 3 2 2 1 0 0 1 1 2 0 -0 -0 0 1 1 1 1 2 1 1 1
7 5 6 7 6 6 6 7 8 8 9 13 10 10 10 10 8 7 6 5 5 4 3 3 2 3 2 2 1 0 1 1 1 1 1 1 2 3 3 3 3 4 4 4
8 8 6 6 8 6 7 8 12 14 14 14 10 11 9 7 7 6 6 5 4 3 3 4 4 3 3 2 2 1 2 2 2 2 3 3 3 3 4 5 5 6 6 5
10 12 7 6 7 8 8 9 12 16 16 12 10 12 9 7 5 5 5 4 4 4 3 3 3 3 3 3 2 2 2 3 3 3 4 4 5 6 6 6 6 6 6 5
10 11 6 6 6 7 9 10 8 13 12 14 11 9 7 7 6 6 6 5 5 4 3 3 3 3 3 2 2 2 3 4 5 5 6 6 6 5 5 5 6 6 5 6
8 12 8 7 6 6 8 7 11 11 16 16 12 11 10 9 8 7 6 5 5 4 3 3 3 3 3 2 3 3 5 6 6 7 7 6 5 5 6 6 5 6 5 5
7 9 10 8 9 9 9 9 9 9 11 13 14 11 7 8 7 7 6 5 4 4 3 3 4 3 3 3 4 5 6 7 7 6 5 5 5 5 6 5 6 6 5 6
7 8 12 10 7 6 7 9 8 11 13 12 13 11 6 6 6 5 5 5 4 4 3 3 4 4 4 4 5 6 6 7 6 6 6 6 6 5 5 6 6 6 6 6
7 10 13 12 9 7 9 8 8 9 10 13 16 11 6 6 6 5 5 5 4 4 3 4 4 5 5 6 6 6 6 6 7 7 6 6 5 5 6 6 6 6 6 6
6 9 11 13 11 9 10 9 8 8 12 11 11 9 7 7 6 6 5 4 4 4 4 5 5 5 5 6 7 7 6 5 6 6 6 6 5 6 6 6 6 6 5 5
7 11 10 10 10 9 9 9 9 9 9 11 9 9 8 6 6 5 5 5 5 5 5 5 5 5 6 7 7 6 5 5 5 6 6 6 6 6 6 6 6 5 5 5
7 11 10 12 10 9 10 9 8 9 8 9 8 9 5 5 5 5 5 5 5 5 5 5 4 5 6 6 7 5 4 5 6 6 6 6 6 6 6 6 6 6 6 5
9 11 11 13 11 11 14 10 9 8 8 8 10 7 6 6 6 5 5 5 5 4 4 4 4 5 5 6 5 5 5 6 7 7 7 7 6 7 6 6 6 6 6 5
10 10 10 13 13 19 9 8 8 8 7 6 7 6 6 6 5 5 4 4 4 4 4 4 3 5 5 5 5 5 6 7 7 8 8 7 7 7 7 6 6 6 5 6
8 9 13 16 13 11 10 9 9 9 9 6 6 6 6 6 5 5 4 3 3 3 3 3 3 4 6 6 6 7 7 8 8 8 9 8 8 8 7 7 6 6 6 6
9 9 10 13 18 19 9 8 6 6 11 6 6 6 6 6 9 5 4 3 3 2 2 4 5 6 7 7 8 8 8 9 9 9 8 8 8 8 7 7 6 6 6 6
12 12 14 13 16 11 8 8 6 12 10 5 6 6 6 7 5 4 3 3 2 2 3 5 6 7 8 8 8 9 9 10 9 9 8 8 8 7 7 6 6 6 6 6
12 13 14 13 17 17 7 6 10 7 5 5 5 5 5 4 4 4 4 3 3 4 6 7 7 8 9 9 9 10 10 9 9 8 8 8 7 7 7 7 6 6 6 5
12 9 10 10 9 7 6 5 4 5 5 5 5 4 4 4 4 4 5 5 6 7 8 8 10 10 10 9 9 10 9 9 9 9 8 7 6 7 7 7 6 6 5 5
8 7 9 9 7 6 6 5 4 4 4 4 3 3 3 4 4 5 6 7 8 8 10 10 11 10 10 10 10 9 9 9 9 9 8 7 8 8 8 7 6 5 5 5
7 7 8 8 7 6 5 4 4 4 3 3 3 3 4 4 4 4 6 7 9 12 10 10 10 11 10 10 9 9 9 10 10 8 8 8 8 8 8 8 7 5 4 4
6 7 9 9 6 6 5 4 4 4 4 4 4 4 4 4 4 5 9 10 10 9 11 12 11 11 10 10 10 10 10 9 9 9 8 8 7 7 7 7 6 6 6 6

GFSCGP_con_lsi_021.txt.gz
Lid_Strength_Index
5 7 9 7 7 7 7 8 9 7 6 6 7 7 6 5 5 5 5 4 4 4 2 2 1 1 1 0 0 1 1 0 0 0 0 0 0 -0 -1 -1 -1 -1 -1 -0
7 8 6 6 6 8 8 9 9 7 6 6 7 7 6 5 5 5 4 4 4 4 3 2 2 1 1 1 1 1 0 0 -0 -0 -0 -0 -0 -1 -0 -1 -1 -0 -0 -0
8 7 6 7 7 8 8 9 9 8 7 6 7 8 7 6 5 5 4 4 3 4 4 3 3 2 1 1 1 1 1 0 -0 -1 -0 -0 -1 -1 -0 -0 -0 0 -0 0
8 6 6 7 8 7 9 7 7 8 8 11 7 12 8 7 7 6 5 4 4 4 3 3 3 2 2 1 0 0 0 -0 -0 -1 -0 -0 0 1 0 0 0 0 -0 0
8 7 7 8 8 6 9 6 7 7 8 9 9 10 12 7 8 7 5 5 4 3 3 3 3 2 1 1 1 0 -0 -0 -1 -1 -1 -0 0 1 1 1 2 2 2 3
8 5 6 6 6 6 6 7 7 7 8 12 9 10 11 9 7 7 6 5 4 4 3 3 2 2 1 1 0 0 1 0 -0 -0 0 1 2 2 3 4 5 5 5 4
7 7 6 5 7 6 6 8 13 13 14 14 9 10 9 7 6 5 6 5 4 4 3 3 3 2 2 1 1 1 1 1 1 1 2 2 3 4 5 6 6 7 5 5
10 12 7 5 7 8 8 8 12 15 14 13 9 12 9 6 5 5 5 4 4 4 3 3 2 2 2 2 1 1 1 2 2 3 4 4 5 6 6 6 6 5 6 6
10 10 6 6 6 6 8 10 7 11 11 13 11 9 7 6 6 5 5 5 5 4 3 3 2 2 2 2 2 1 1 2 3 4 4 5 6 6 5 5 4 5 5 5
7 11 7 7 6 6 7 6 11 10 15 16 12 11 9 8 7 6 6 5 5 4 3 3 2 2 2 2 1 1 2 4 4 4 5 6 5 5 5 5 5 5 5 5
6 8 9 7 8 8 9 9 8 9 10 14 14 11 7 7 6 6 5 5 4 4 3 3 2 2 2 2 2 3 4 4 4 6 6 5 5 5 6 5 5 5 5 5
6 7 10 9 7 6 7 8 8 12 12 11 13 11 6 6 5 5 5 5 4 3 3 3 2 2 2 2 3 4 4 4 5 5 6 5 6 5 5 5 5 5 6 5
6 8 12 11 9 7 8 7 7 8 9 11 15 11 6 5 5 5 5 4 4 4 3 3 3 2 2 3 4 4 4 5 5 6 6 6 6 5 5 5 5 5 6 6
6 8 10 13 10 8 10 8 8 8 12 11 11 9 7 6 6 5 4 4 4 4 3 3 3 3 3 3 4 5 5 4 5 6 6 6 5 5 5 5 6 5 6 6
6 10 9 8 8 8 8 8 8 9 9 11 9 9 7 6 6 5 4 4 4 4 4 3 3 3 3 3 4 5 4 4 5 6 6 5 5 5 5 6 6 5 6 6
6 10 10 11 8 9 9 8 8 8 8 8 8 8 5 5 4 5 4 4 4 4 4 3 3 3 3 4 5 5 4 4 4 5 6 5 5 5 6 6 6 6 6 6
8 10 11 12 10 10 14 10 8 8 7 7 10 7 5 6 5 5 4 4 4 4 4 3 3 3 2 3 4 5 4 5 5 6 6 6 6 6 6 6 7 6 6 6
10 10 10 12 13 18 9 6 7 7 7 6 6 6 5 5 4 4 4 4 4 4 3 3 3 2 2 2 4 4 5 5 6 6 6 6 7 7 7 7 7 7 6 6
6 8 12 16 12 10 8 8 8 9 8 6 6 6 5 5 5 5 3 3 3 3 2 2 2 2 1 3 4 5 6 6 6 7 7 7 8 8 8 8 7 7 6 6
7 8 10 12 17 19 9 7 5 6 10 6 6 6 5 5 8 6 4 3 3 2 2 2 2 1 2 4 4 6 7 7 7 8 8 8 8 8 8 8 7 6 6 6
12 12 14 13 15 11 7 6 5 11 10 5 5 5 5 6 5 4 3 3 2 2 2 2 2 3 4 6 6 7 8 9 8 8 8 9 8 8 8 7 7 6 7 6
11 13 14 12 16 17 6 6 10 7 4 4 4 4 5 4 4 3 3 3 3 3 2 3 4 5 7 7 7 8 9 8 9 9 9 9 8 8 7 7 6 7 7 7
11 9 10 9 9 5 5 5 4 4 4 4 4 4 4 4 4 3 4 3 3 3 4 5 7 9 9 8 9 10 9 9 9 9 9 9 8 7 7 7 7 7 6 6
7 6 8 8 6 6 5 4 4 4 4 3 3 3 3 4 4 4 3 4 4 5 7 8 8 9 10 9 9 9 9 9 9 10 9 8 8 8 7 7 7 6 5 5
7 6 8 8 6 5 5 4 4 4 3 3 3 3 4 4 4 3 3 5 6 8 8 9 11 11 10 9 9 9 9 9 10 10 9 9 8 7 8 7 6 6 4 4
6 7 9 9 6 6 5 4 3 4 4 4 4 4 4 3 3 4 8 9 9 10 11 11 10 10 10 9 10 9 9 10 10 10 9 8 8 7 6 6 5 5 5 5

GFSCGP_con_lsi_024.txt.gz
Lid_Strength_Index
5 7 9 8 7 7 8 9 9 8 6 7 7 7 6 5 5 6 5 5 5 4 3 2 1 1 1 1 1 1 1 0 0 1 1 1 1 1 0 -0 -1 -0 0 1
7 9 7 6 7 7 8 9 9 8 6 7 8 8 6 6 5 5 5 5 5 4 3 3 2 2 1 2 1 1 1 1 0 0 1 0 1 0 0 0 1 1 1 1
9 8 6 6 7 8 8 9 9 9 7 7 8 9 8 6 5 5 4 4 4 4 4 4 3 2 2 2 2 1 1 1 0 0 0 1 1 1 1 1 2 2 1 1
9 6 7 7 8 8 10 7 8 8 9 11 8 14 11 9 7 6 5 5 4 4 4 3 3 3 3 2 1 1 1 1 0 0 1 1 2 2 1 1 2 2 1 2
10 7 7 8 8 7 9 7 8 8 9 11 11 13 11 9 9 7 6 5 5 4 4 4 3 3 2 2 2 1 1 1 1 0 0 1 2 1 2 2 3 4 4 5
7 5 6 7 6 6 6 7 8 8 9 16 11 13 12 10 9 9 6 5 5 4 4 3 3 2 2 2 1 1 2 2 1 0 0 1 2 3 4 5 6 6 6 6
8 7 6 6 7 6 7 9 13 17 18 17 9 11 12 8 8 8 8 5 5 4 4 4 4 3 3 2 2 2 2 2 1 2 2 3 4 4 5 6 6 6 7 7
11 13 7 6 7 10 10 9 14 21 21 15 10 12 10 7 5 6 5 5 5 5 4 4 3 3 3 2 2 2 2 2 3 2 4 4 5 5 6 5 6 7 7 7
13 12 7 6 6 6 8 10 7 12 12 14 11 10 7 6 6 5 6 5 5 5 4 4 3 3 2 2 2 2 2 3 3 4 4 5 5 6 6 5 6 6 6 7
11 15 9 6 6 6 7 6 12 10 16 17 12 12 11 9 7 6 6 6 5 5 4 3 3 3 2 2 2 2 2 4 5 5 5 6 6 5 5 5 6 7 7 6
7 10 9 7 8 9 9 9 9 9 12 17 18 12 7 7 6 6 6 6 5 5 4 3 3 2 2 2 2 2 3 5 5 5 5 6 6 5 5 5 6 7 6 6
6 8 12 9 7 6 7 9 8 15 14 14 15 13 6 6 5 5 5 5 5 4 4 3 3 3 2 2 2 3 4 5 5 5 6 6 5 6 6 6 6 6 6 6
7 9 13 11 9 7 9 8 8 8 11 14 17 14 6 6 6 5 5 5 5 4 4 3 3 3 3 2 3 4 4 5 5 6 6 6 6 6 6 6 6 6 6 7
6 8 10 14 11 9 10 9 8 9 15 14 13 10 8 7 6 5 5 4 4 4 4 4 3 3 3 3 3 4 5 4 5 5 6 7 6 6 6 6 6 6 6 7
7 10 9 8 8 8 9 9 8 9 9 13 11 9 8 6 6 5 4 4 4 4 4 4 4 3 3 3 3 4 4 4 4 5 6 6 6 6 6 5 6 6 6 7
6 11 10 11 9 9 10 9 8 8 8 9 9 9 6 5 5 5 5 5 4 4 4 4 3 3 3 3 3 3 4 4 3 5 6 5 5 6 6 6 6 6 7 7
9 11 12 14 10 10 14 11 9 8 7 8 10 8 6 6 6 5 5 4 4 4 4 4 3 3 3 3 2 3 4 3 4 6 5 5 6 6 7 7 8 8 8 7
10 11 12 15 13 17 9 6 7 8 7 7 7 6 6 6 5 4 4 4 4 3 3 3 3 3 2 2 3 3 4 4 5 6 6 6 6 7 8 8 8 8 7 7
7 10 14 17 14 11 9 7 8 8 9 6 7 6 6 5 5 5 4 3 4 3 3 3 2 2 2 2 3 4 5 6 6 7 7 7 8 8 8 8 8 8 8 8
7 8 12 13 17 19 10 7 5 6 11 6 6 6 6 5 10 7 4 3 3 3 2 3 2 2 2 3 4 6 6 7 8 8 8 8 9 9 9 9 8 8 7 7
13 12 15 14 16 13 7 6 5 12 12 5 5 5 6 7 6 4 3 3 3 3 3 2 3 5 7 7 6 8 8 9 9 8 9 9 8 8 8 9 8 8 7 7
13 14 15 14 17 18 6 6 10 8 5 5 5 5 5 5 4 4 4 3 3 3 3 5 8 8 8 7 8 9 10 9 8 8 8 9 8 8 8 8 8 8 8 8
12 10 12 11 12 6 4 5 4 4 5 4 4 4 4 5 4 4 4 4 4 5 8 7 8 9 9 9 9 10 9 8 8 9 10 9 9 8 8 9 9 9 9 7
7 6 9 9 6 6 5 4 4 4 4 4 4 4 4 5 4 4 4 5 6 8 8 8 9 10 10 10 9 9 9 8 9 9 9 9 9 8 8 8 8 8 7 7
7 7 8 8 6 5 5 5 4 4 4 4 4 4 5 4 4 5 8 8 9 9 9 10 10 10 10 9 9 8 8 8 9 9 9 8 9 8 8 7 6 7 6 6
6 7 10 11 6 7 6 5 4 5 5 5 5 7 7 7 8 8 9 9 11 11 10 10 10 10 10 9 8 8 7 8 8 8 8 8 9 8 7 6 6 5 5 5

GFSCGP_con_lsi_027.txt.gz
Lid_Strength_Index
6 10 11 9 8 8 9 10 11 10 8 8 9 9 9 8 7 7 7 6 5 5 4 3 3 3 2 2 1 1 2 2 2 1 2 2 2 2 3 3 3 3 2 2
9 11 8 7 7 8 8 10 10 10 8 9 10 10 9 8 8 7 7 7 6 5 4 3 3 3 2 2 2 2 2 1 1 1 1 2 2 2 3 3 3 3 3 3
10 9 6 7 8 9 9 11 11 10 10 11 10 11 9 8 7 6 6 5 5 5 5 4 4 4 3 2 2 2 2 1 1 1 0 3 3 4 4 4 4 3 3 3
9 7 7 8 9 8 11 8 8 9 10 14 10 15 11 9 8 7 7 7 5 5 4 4 4 4 3 3 2 2 1 1 1 1 4 5 4 5 4 4 4 4 3 5
10 9 9 10 9 7 10 8 8 9 10 12 12 14 12 9 9 8 8 7 7 5 4 4 4 3 3 2 2 1 1 1 2 3 3 4 5 5 4 5 6 7 7 6
8 6 7 8 7 7 7 8 9 10 11 17 12 13 14 12 9 9 7 6 6 6 5 4 3 3 3 2 2 3 4 4 5 5 5 4 5 7 8 8 8 8 6 7
9 8 7 6 8 7 8 11 16 18 19 19 11 13 12 9 8 7 7 6 7 5 5 5 4 4 4 5 5 6 6 6 6 7 7 7 7 8 8 8 8 7 9 9
12 14 9 7 8 10 10 11 17 21 21 18 11 15 12 7 6 6 6 6 6 6 5 5 6 6 6 6 6 7 6 6 6 6 8 8 8 8 8 8 8 8 8 8
13 13 8 7 7 8 9 12 9 15 14 18 14 11 9 8 8 8 7 7 7 6 7 6 6 6 7 7 6 7 6 6 6 8 8 8 8 8 8 8 8 8 8 8
11 14 9 8 7 7 9 8 13 14 18 20 15 14 14 10 9 8 8 7 7 6 7 7 6 6 6 5 4 5 5 6 7 8 8 8 8 8 8 8 7 9 9 8
9 11 12 9 10 10 10 11 11 11 14 19 20 15 10 10 8 9 8 7 6 6 7 6 6 5 4 4 4 4 5 7 7 7 8 8 8 7 7 7 7 8 7 9
9 11 15 12 8 7 9 10 11 16 15 16 17 15 9 9 8 7 8 6 6 6 6 6 6 5 4 4 4 4 7 7 7 7 8 8 7 6 7 6 7 8 8 8
9 11 16 13 10 9 10 9 9 10 13 16 19 15 8 8 8 7 8 7 6 6 7 6 6 5 4 4 4 5 7 7 7 8 8 8 6 6 6 7 7 7 8 8
7 10 12 16 13 10 12 11 10 11 16 16 15 12 10 9 9 8 7 8 7 6 5 6 6 5 5 5 5 6 7 7 8 8 8 7 6 6 6 7 7 8 7 8
8 12 11 11 10 10 10 10 10 11 11 14 12 11 9 9 9 8 7 7 6 6 6 6 6 6 5 5 6 6 6 7 7 7 7 6 6 6 7 7 7 7 8 8
8 14 13 14 10 10 12 10 10 10 10 11 11 11 9 8 8 8 7 7 7 6 6 5 5 5 5 5 6 6 7 7 6 6 6 6 6 6 7 7 8 8 8 8
10 13 14 16 12 12 16 12 10 10 9 10 13 10 8 8 7 8 7 6 6 6 6 5 5 5 5 5 5 6 6 5 5 5 5 6 7 7 8 9 9 9 9 8
12 12 15 16 16 21 11 8 9 10 9 9 10 9 8 8 8 6 7 6 6 6 5 5 5 4 4 5 5 6 5 5 6 7 7 8 9 9 8 9 9 9 8 9
9 13 15 17 17 13 11 9 9 10 11 8 9 8 8 7 8 7 5 5 6 6 5 5 4 5 6 6 6 7 7 7 7 8 9 9 9 9 9 9 9 8 9 9
9 11 15 16 18 19 12 9 7 8 14 7 7 7 7 7 13 9 6 5 5 5 6 8 8 8 9 9 8 10 10 10 10 9 10 9 8 8 9 8 8 9 8 8
14 15 17 18 19 14 9 7 6 15 13 7 7 7 7 9 8 6 5 5 6 8 9 9 9 10 10 9 9 10 10 10 9 9 8 9 8 8 8 8 8 8 9 9
14 15 16 15 17 18 7 8 12 9 8 7 7 7 7 6 5 5 5 7 9 10 9 10 10 10 10 9 9 10 10 9 9 9 9 8 8 8 8 9 9 9 9 10
14 12 14 13 13 8 7 8 6 6 7 7 6 6 5 6 6 5 8 10 10 10 10 10 10 11 10 10 10 10 9 8 9 9 9 8 8 8 8 9 9 10 9 10
10 7 12 11 9 8 7 6 5 5 6 5 6 7 6 7 7 10 10 10 10 10 10 10 11 11 11 10 10 10 10 9 9 9 9 8 8 8 8 8 8 8 10 11
9 9 9 10 8 7 7 6 5 6 6 7 8 8 9 9 10 10 11 11 11 11 10 11 11 11 11 10 10 10 10 9 9 9 9 9 11 9 9 8 7 8 8 8
9 9 12 13 8 8 8 7 6 8 8 8 8 9 8 9 10 10 11 11 11 11 10 11 12 11 11 11 10 10 9 9 9 10 10 11 11 10 8 8 8 6 6 6

GFSCGP_con_lsi_030.txt.gz
Lid_Strength_Index
7 10 12 10 9 8 9 10 11 10 9 9 10 10 9 8 8 8 8 8 6 5 4 3 2 2 2 1 2 2 2 3 3 3 3 2 3 3 3 3 3 4 4 4
9 11 9 7 7 8 9 11 11 10 9 9 10 11 10 10 8 7 7 7 6 6 6 4 3 3 2 2 2 2 1 3 3 3 2 2 3 4 5 4 4 4 3 3
11 9 7 7 9 10 10 11 11 11 11 11 11 12 11 10 8 7 6 5 5 5 5 5 4 3 2 2 2 2 2 2 3 3 2 3 5 5 6 5 5 4 3 3
10 7 8 9 9 9 12 9 9 10 12 15 12 16 12 10 9 7 7 7 6 5 4 4 4 4 3 2 2 2 2 2 2 2 3 4 4 5 5 5 5 4 3 5
10 9 9 10 9 8 10 8 9 9 12 13 12 15 13 10 11 9 8 7 7 6 5 4 4 3 3 2 2 2 2 2 2 1 3 5 5 5 5 5 6 7 8 7
9 7 7 8 7 8 7 9 9 10 12 17 13 14 14 12 10 9 7 6 6 7 5 4 4 3 3 2 3 2 3 3 3 2 5 6 7 7 7 9 10 9 8 7
9 9 8 7 9 8 9 12 16 17 18 18 12 14 13 9 8 8 7 8 7 5 5 5 5 4 3 3 3 3 4 7 7 7 8 8 9 9 9 9 9 9 8 8
13 15 9 7 9 11 11 11 16 20 20 17 12 16 12 8 7 7 7 7 6 6 5 5 4 4 4 4 4 5 6 8 8 9 9 9 9 9 9 8 8 8 8 8
14 13 8 8 7 8 10 13 10 15 15 18 15 12 10 8 8 8 7 7 7 6 6 6 6 6 7 7 7 7 7 8 9 9 8 8 8 8 8 8 8 8 8 8
10 14 9 8 7 7 9 8 13 14 19 20 15 15 14 11 9 8 9 8 7 7 7 6 6 7 7 7 7 8 8 8 9 9 9 8 8 8 8 8 8 8 8 8
9 11 12 9 11 11 11 11 11 12 15 18 20 16 11 10 9 9 8 7 7 7 6 6 6 7 7 7 7 7 8 9 8 8 8 8 8 7 7 8 8 8 8 8
9 11 15 12 8 8 10 10 11 17 16 16 17 15 9 9 8 7 7 7 6 6 6 6 6 6 7 6 6 6 7 7 8 8 9 8 8 7 7 7 7 7 8 8
9 12 16 14 12 10 11 10 10 11 14 16 19 16 9 9 9 8 8 7 6 6 7 7 7 7 6 6 5 5 7 8 8 7 9 9 8 7 7 7 7 8 9 9
7 11 13 16 13 11 13 11 10 11 17 16 16 13 10 10 9 9 8 8 7 7 7 8 7 7 6 5 5 6 8 8 7 8 9 8 7 6 7 7 8 8 8 8
9 12 12 11 10 11 11 11 11 12 12 15 13 12 10 10 10 9 8 8 7 7 7 8 8 7 6 6 6 7 7 7 7 8 9 7 6 7 7 8 8 8 8 8
8 13 13 14 10 11 12 11 11 11 11 11 11 12 10 10 9 9 8 8 8 7 8 7 6 6 6 6 6 6 7 7 7 8 7 6 6 6 7 8 8 9 9 9
11 13 15 16 13 13 16 13 11 11 11 11 14 12 10 10 9 9 8 7 7 7 6 5 5 6 6 6 6 6 7 7 8 7 6 7 7 8 9 9 9 9 9 8
12 13 15 17 17 20 12 9 9 10 11 10 10 10 9 8 8 8 8 8 8 7 7 7 6 5 5 6 6 7 7 7 7 8 8 8 9 9 9 9 9 9 9 9
9 13 16 18 18 14 11 9 10 11 11 9 10 9 9 7 8 8 6 6 7 8 9 9 9 8 8 8 8 9 10 10 10 10 9 9 10 9 8 9 9 9 9 9
11 14 16 17 19 20 13 9 8 8 14 8 8 8 8 9 13 9 7 8 10 10 9 10 10 10 10 10 10 11 11 11 11 10 9 9 9 9 9 10 9 9 9 9
17 17 18 20 20 15 10 8 8 15 14 8 7 8 8 9 8 7 9 10 9 10 10 10 10 11 10 9 9 10 10 10 9 8 8 8 8 8 8 8 9 9 10 9
14 16 18 15 18 17 7 9 12 11 8 8 8 8 7 7 7 9 10 10 10 11 10 10 11 10 9 9 9 9 9 9 8 8 8 8 8 8 8 9 9 9 10 10
14 12 13 13 13 8 8 8 7 7 7 8 7 6 6 6 9 10 11 11 11 11 12 11 11 10 10 10 10 11 10 9 9 10 10 10 9 8 8 10 10 11 10 12
10 8 12 11 9 9 7 6 6 6 7 8 8 7 8 10 10 11 11 11 11 11 11 11 11 11 10 10 10 11 11 11 11 11 11 10 10 10 10 10 10 10 12 11
10 9 11 11 9 8 7 7 7 8 8 9 9 9 10 10 11 11 11 11 11 11 11 10 11 11 11 11 11 11 11 11 12 11 11 10 12 11 10 10 9 9 9 9
9 10 13 14 8 9 9 8 8 8 9 9 10 10 10 11 12 12 12 11 11 11 11 11 11 11 12 12 12 11 11 11 11 11 11 12 12 12 10 10 9 7 7 6

GFSCGP_con_lsi_033.txt.gz
Lid_Strength_Index
8 11 12 11 10 9 10 11 12 11 8 9 10 10 9 9 9 9 8 7 6 6 4 3 2 2 2 3 3 2 3 3 3 4 4 4 4 3 3 3 4 5 4 4
10 12 9 8 8 9 10 11 11 10 9 10 11 11 9 8 8 7 8 8 7 6 5 4 3 3 2 3 3 3 2 3 3 3 3 3 3 4 4 5 6 5 5 4
11 10 7 8 9 10 11 11 11 11 10 11 11 12 12 11 8 8 7 6 6 6 5 5 4 3 3 3 3 2 2 3 3 3 3 5 5 6 7 7 7 6 5 4
10 8 9 9 10 10 12 10 10 11 12 15 12 16 12 12 10 8 7 7 7 6 5 4 4 4 3 3 2 2 2 2 3 3 3 4 5 5 7 7 7 6 5 6
10 10 10 10 10 9 10 9 10 10 12 14 13 15 13 11 11 9 8 7 6 6 5 5 4 3 3 3 2 2 2 2 2 3 3 4 5 6 7 7 6 9 8 7
9 8 9 9 8 8 8 10 11 11 12 17 14 15 15 12 10 9 7 7 7 7 6 5 4 3 3 3 2 2 2 2 2 3 4 5 6 7 7 8 9 9 9 9
10 10 9 7 10 9 10 13 17 17 18 18 12 14 13 10 9 9 8 7 8 7 6 5 4 4 3 3 3 2 2 3 3 3 5 6 7 7 7 8 10 10 10 10
13 14 10 8 10 11 11 12 16 19 20 17 13 17 12 9 8 8 8 8 7 6 5 5 4 4 3 3 3 2 3 6 6 6 7 8 7 7 7 7 8 9 9 9
14 13 9 8 8 9 10 13 11 15 15 18 15 13 10 9 9 8 8 7 7 6 6 5 4 4 3 3 3 4 6 8 9 9 9 10 9 9 8 8 9 8 8 8
10 13 10 9 8 8 10 9 14 15 19 20 16 15 14 11 10 9 8 8 7 6 6 5 4 5 5 6 7 7 8 9 10 10 9 9 9 8 8 9 8 8 8 8
10 11 12 10 11 11 11 12 12 12 15 18 20 16 12 11 9 9 8 8 7 6 6 5 5 5 6 7 8 8 9 10 10 10 10 9 10 9 9 8 8 8 8 8
9 11 15 12 9 8 10 11 12 16 16 17 18 16 10 10 9 9 7 7 7 6 5 5 6 7 8 7 8 8 8 10 10 9 9 8 9 9 8 8 8 8 8 8
9 12 16 14 11 10 12 11 11 12 15 16 19 16 10 10 10 9 8 8 6 6 7 7 7 7 7 8 8 8 8 9 9 8 8 9 8 8 8 8 8 8 9 9
8 12 13 16 13 12 13 12 11 12 17 16 16 14 11 10 10 9 9 8 7 6 7 7 8 7 7 7 8 8 8 9 8 7 8 8 8 7 7 7 8 8 8 9
9 13 13 12 12 11 11 11 11 13 13 15 13 13 11 11 10 10 10 9 8 7 7 8 8 8 8 7 7 8 8 7 7 8 8 7 7 7 7 7 8 8 8 8
10 14 13 14 12 12 13 11 12 12 12 12 13 13 11 10 10 10 9 9 8 8 7 7 8 7 7 7 7 8 8 7 8 8 7 7 7 8 8 8 8 9 9 9
12 14 15 16 14 14 16 14 12 11 11 12 14 12 11 11 10 10 9 8 8 8 7 6 6 6 6 6 6 7 8 8 8 7 7 8 9 10 9 9 9 9 9 9
13 14 16 17 17 20 12 10 10 11 11 11 11 11 10 10 10 9 9 9 9 8 9 9 9 7 6 7 8 8 8 9 9 10 10 10 9 9 9 9 9 8 9 9
10 14 17 18 18 15 12 11 11 12 12 10 11 10 9 8 9 8 7 9 9 10 10 11 11 10 10 10 10 11 12 11 11 11 10 9 9 8 9 9 10 9 9 9
12 14 15 18 19 20 13 11 9 9 14 9 9 9 9 10 14 10 9 10 10 10 10 11 11 11 11 11 10 11 11 11 11 10 9 9 8 9 10 9 9 9 9 9
17 17 18 21 20 17 12 9 9 14 13 9 8 8 9 10 9 9 10 11 10 11 11 10 10 11 11 10 10 10 9 9 8 7 7 8 8 9 9 9 9 9 10 10
15 17 19 19 20 18 9 9 13 11 9 8 8 8 8 9 10 10 10 11 11 11 11 11 11 11 10 10 9 9 10 9 8 8 9 9 9 9 10 11 10 10 10 11
14 13 14 14 14 10 9 9 8 8 8 8 8 7 7 10 11 10 11 11 12 12 13 12 12 11 10 10 9 10 10 10 10 11 12 12 11 11 11 11 11 11 11 12
11 9 12 12 10 9 8 7 7 7 7 7 7 7 8 11 11 11 11 12 12 13 13 12 11 11 11 11 11 11 11 12 12 13 13 12 13 12 11 10 10 11 12 12
11 9 10 11 10 8 8 9 9 10 9 10 10 10 10 10 11 11 12 12 12 12 11 11 11 11 11 11 11 12 12 12 13 13 13 13 13 12 11 10 10 10 10 10
10 10 12 13 8 9 9 9 9 9 10 10 10 11 11 11 12 12 12 12 12 12 11 11 11 12 13 13 13 13 12 13 13 13 13 13 12 11 11 11 10 8 8 7

GFSCGP_con_lsi_036.txt.gz
Lid_Strength_Index
9 11 13 11 10 10 11 12 12 12 10 10 10 10 9 8 8 8 8 7 7 6 4 3 3 2 2 2 2 3 3 4 4 3 4 5 5 5 5 4 4 3 4 5
10 12 10 9 9 10 10 12 12 10 10 10 11 11 9 8 8 8 8 7 7 6 5 4 3 3 2 2 2 3 3 4 4 3 4 4 5 5 5 5 5 5 6 5
12 10 8 9 10 11 11 12 12 12 10 12 12 13 11 10 8 8 7 6 6 6 6 5 4 3 3 2 2 3 3 4 4 4 4 5 6 7 6 7 7 6 6 5
11 8 9 10 11 10 13 10 11 11 13 15 13 16 13 11 9 9 8 8 7 6 5 4 4 4 3 3 2 3 3 4 3 3 3 5 4 6 7 7 7 7 7 7
10 10 10 11 10 10 11 9 10 11 13 14 14 15 14 11 12 9 9 8 7 7 6 5 4 3 3 3 3 3 3 4 2 3 3 4 5 5 6 8 8 10 10 9
10 8 9 10 9 9 9 10 12 12 13 17 14 15 15 13 10 9 8 7 7 7 7 5 4 3 3 4 4 3 3 3 3 3 4 4 6 7 7 8 10 10 10 10
11 10 9 8 11 9 11 13 17 17 18 18 13 15 13 11 10 9 9 7 7 7 7 7 6 4 4 4 4 3 3 3 3 3 4 5 5 6 6 8 9 10 11 10
14 15 10 8 10 11 12 13 17 19 20 17 13 16 12 10 9 8 8 8 7 7 6 6 5 4 4 4 3 3 3 2 2 3 3 4 4 6 6 7 9 9 10 9
14 14 10 9 9 10 12 14 12 15 16 18 15 13 11 10 9 8 9 9 9 8 6 6 5 4 3 3 3 3 3 2 3 3 4 6 6 6 7 8 8 9 9 9
10 14 10 9 8 9 11 10 14 15 19 20 17 16 14 11 11 10 9 8 8 7 6 5 5 4 3 3 3 3 2 3 5 6 6 7 8 7 7 8 9 9 10 9
10 12 13 11 11 12 12 13 13 13 15 18 20 16 12 11 10 10 10 8 8 7 6 5 5 4 3 3 4 4 5 7 9 9 10 10 9 8 7 7 9 9 8 8
9 12 16 12 10 9 11 12 12 16 16 17 18 16 11 11 11 10 9 8 8 6 6 5 5 5 6 6 6 6 8 9 10 9 9 9 8 8 8 9 9 9 8 8
9 13 16 14 12 11 12 11 11 13 16 16 19 16 11 11 10 10 10 8 7 6 6 6 6 6 6 7 7 8 9 10 10 9 8 8 9 9 10 9 8 8 8 8
8 12 13 15 13 12 14 12 12 13 17 16 17 14 12 11 11 10 9 10 9 6 6 6 7 7 7 7 7 8 9 9 9 9 9 10 9 8 8 9 9 9 8 9
9 13 13 13 12 12 12 12 12 13 13 15 14 14 12 11 11 11 10 10 9 7 7 7 7 8 7 8 8 8 9 9 9 9 10 10 8 9 9 9 8 8 8 8
10 13 13 14 12 13 13 12 12 12 13 13 13 13 11 12 11 10 11 9 8 8 7 8 8 7 7 7 7 8 9 9 9 9 10 9 9 9 9 9 9 9 9 8
12 14 15 16 15 14 16 14 12 12 12 11 14 11 11 12 11 11 10 9 9 9 9 9 8 7 7 6 6 7 8 8 9 9 9 10 10 10 10 10 9 8 9 8
14 14 16 18 17 20 13 11 11 12 11 11 11 11 10 10 10 10 10 10 10 10 11 11 11 10 9 8 8 8 9 9 10 11 11 10 9 9 9 9 9 9 9 9
11 15 17 17 18 15 13 12 12 13 13 11 11 10 10 9 9 10 11 11 11 12 11 11 11 11 11 11 11 11 11 10 11 10 10 9 8 9 9 9 9 9 9 9
12 14 15 19 19 20 14 11 10 11 15 10 10 10 9 10 15 11 11 11 11 11 11 11 11 11 12 11 11 11 11 10 10 9 8 8 8 8 9 9 9 9 9 10
16 17 18 21 20 16 12 11 10 15 13 9 9 9 10 11 11 11 11 11 11 11 11 11 11 12 12 11 10 10 10 10 9 8 8 8 8 8 8 9 10 10 11 12
14 16 19 19 21 18 11 11 13 11 10 9 9 9 9 11 11 11 11 11 12 12 12 11 11 11 11 10 10 11 10 9 9 8 9 9 10 11 11 12 12 12 13 13
14 13 14 14 14 11 10 10 9 9 9 9 9 8 9 10 11 11 12 12 13 13 13 12 12 12 12 12 11 12 11 11 11 12 13 13 12 12 13 13 13 13 13 14
12 11 14 13 11 10 9 8 8 8 9 8 8 8 9 11 11 12 13 13 13 13 13 12 12 12 13 12 12 12 11 12 13 13 13 13 13 13 13 13 13 13 13 13
12 11 12 13 10 9 8 8 9 9 9 9 10 10 10 11 12 12 13 13 13 12 12 11 12 13 13 13 13 13 13 13 14 13 13 13 14 14 14 13 12 12 11 10
11 11 13 13 10 9 9 9 9 9 10 10 10 11 11 11 12 12 13 12 12 12 12 12 13 14 14 14 15 14 14 14 14 13 14 14 15 15 14 13 12 9 8 8